Location: �perlecques
(50.8057°N, 2.1521°E)
Time: 17:04:46
(UTC+00:00)

ATLAS 5 CENTAUR R/B - Pass Details

Date: 09 April 2020
Orbit: 543 x 1116 km, 63.4° (Epoch: 01 May)

Event Time Altitude Azimuth Distance (km) Brightness Sun altitude
Rises 19:58:48 0° 221° (SW) 2,741 5.0 -12.7°
Reaches altitude 10° 20:00:54 10° 221° (SW) 1,886 4.2 -13.0°
Maximum altitude 20:05:07 86° 132° (SE) 631 1.5 -13.5°
Drops below altitude 10° 20:09:57 10° 45° (NE) 2,154 4.2 -14.2°
Sets 20:12:29 0° 45° (NE) 3,169 5.1 -14.5°
